period_start,C,m1,H,J0,J1,J2,J3,J4,J5,JA,JB,JC,JD,JJ,JK,JN,#
2013-08-31 00:00:47,0.18,0.19,0.00,23.63,28.58,31.18,5.93,29.67,1001.47,2046.06,3424.80,3286.84,3572.09,350.05,318.43,5.22,0000 0000 0000 0000 000000
2013-08-31 00:01:47,0.24,0.19,0.00,23.62,28.58,31.17,6.02,29.67,1001.45,2046.04,3424.28,3286.33,3571.62,350.88,319.27,5.23,0000 0000 0000 0000 000000
2013-08-31 00:02:47,0.18,0.19,0.00,23.62,28.57,31.22,6.03,29.71,1001.45,2046.06,3423.69,3286.12,3571.24,351.79,319.34,5.23,0000 0000 0000 0000 000000
2013-08-31 00:03:47,0.18,0.19,0.00,23.62,28.57,31.16,5.99,29.75,1001.47,2046.05,3423.24,3285.92,3571.07,349.79,318.64,5.24,0000 0000 0000 0000 000000
2013-08-31 00:04:47,0.11,0.19,0.00,23.61,28.57,31.13,5.98,29.67,1001.47,2046.07,3422.76,3285.47,3570.81,350.64,318.51,5.25,0000 0000 0000 0000 000000
2013-08-31 00:05:48,0.22,0.20,0.00,23.60,28.57,31.16,5.97,29.63,1001.48,2046.06,3422.28,3285.17,3570.31,349.28,317.84,5.25,0000 0000 0000 0000 000000
2013-08-31 00:06:48,0.14,0.20,0.00,23.60,28.57,31.16,5.88,29.58,1001.48,2046.08,3421.86,3285.01,3570.11,349.18,317.95,5.26,0000 0000 0000 0000 000000
2013-08-31 00:07:48,0.15,0.20,0.00,23.58,28.57,31.15,5.90,29.58,1001.48,2046.09,3421.32,3284.78,3569.94,349.92,318.31,5.26,0000 0000 0000 0000 000000
2013-08-31 00:08:48,0.15,0.20,0.00,23.55,28.57,31.14,5.91,29.71,1001.48,2046.11,3421.11,3284.43,3569.59,349.99,318.54,5.27,0000 0000 0000 0000 000000
2013-08-31 00:09:48,0.14,0.20,0.00,23.54,28.57,31.15,5.81,29.75,1001.48,2046.09,3421.04,3284.17,3569.36,349.45,318.07,5.28,0000 0000 0000 0000 000000
2013-08-31 00:10:49,0.06,0.20,0.00,23.52,28.57,31.19,5.97,29.75,1001.48,2046.08,3421.00,3284.10,3569.22,350.32,318.87,5.28,0000 0000 0000 0000 000000
2013-08-31 00:11:49,0.02,0.20,0.00,23.50,28.56,31.21,5.83,29.63,1001.48,2046.11,3420.98,3284.08,3569.14,349.02,317.70,5.29,0000 0000 0000 0000 000000
2013-08-31 00:12:49,0.02,0.20,0.00,23.50,28.55,31.23,5.96,29.79,1001.48,2046.12,3420.95,3284.05,3569.09,349.99,318.70,5.29,0000 0000 0000 0000 000000
2013-08-31 00:13:49,0.05,0.20,0.00,23.51,28.55,31.20,6.04,29.79,1001.48,2046.17,3420.86,3284.05,3569.05,351.23,319.71,5.30,0000 0000 0000 0000 000000
2013-08-31 00:14:50,0.05,0.20,0.00,23.52,28.55,31.19,5.85,29.79,1001.48,2046.27,3420.44,3284.02,3569.02,350.26,318.82,5.30,0000 0000 0000 0000 000000
2013-08-31 00:15:50,0.11,0.20,0.00,23.52,28.55,31.16,5.82,29.58,1001.48,2046.33,3420.17,3284.00,3569.00,349.99,318.57,5.31,0000 0000 0000 0000 000000
2013-08-31 00:16:50,0.10,0.20,0.00,23.53,28.55,31.19,5.89,29.96,1001.48,2046.42,3420.06,3284.00,3569.00,350.29,318.89,5.32,0000 0000 0000 0000 000000
2013-08-31 00:17:50,0.04,0.20,0.00,23.54,28.55,31.18,5.83,29.75,1001.48,2046.48,3420.00,3283.98,3568.99,349.24,318.05,5.32,0000 0000 0000 0000 000000
2013-08-31 00:18:51,0.10,0.20,0.00,23.54,28.55,31.20,5.85,29.75,1001.48,2046.47,3419.90,3283.95,3568.96,349.79,318.37,5.33,0000 0000 0000 0000 000000
2013-08-31 00:19:51,0.00,0.20,0.00,23.54,28.54,31.18,5.85,29.88,1001.48,2046.45,3419.54,3283.69,3568.83,349.16,317.80,5.33,0000 0000 0000 0000 000000
2013-08-31 00:20:51,0.14,0.20,0.00,23.54,28.54,31.16,5.83,29.88,1001.48,2046.50,3419.20,3283.37,3568.48,349.31,317.93,5.34,0000 0000 0000 0000 000000
2013-08-31 00:21:52,0.18,0.20,0.00,23.54,28.53,31.17,5.83,29.63,1001.48,2046.38,3418.97,3283.13,3568.18,349.89,318.71,5.35,0000 0000 0000 0000 000000
2013-08-31 00:22:52,0.03,0.20,0.00,23.54,28.52,31.15,6.01,29.67,1001.48,2046.47,3418.47,3283.03,3568.06,349.57,318.50,5.35,0000 0000 0000 0000 000000
2013-08-31 00:23:52,0.17,0.21,0.00,23.54,28.52,31.15,5.78,29.63,1001.48,2046.54,3418.07,3282.75,3567.77,349.33,317.89,5.36,0000 0000 0000 0000 000000
2013-08-31 00:24:52,0.22,0.21,0.00,23.54,28.52,31.12,5.81,29.75,1001.48,2046.68,3417.48,3282.30,3567.34,349.85,318.26,5.36,0000 0000 0000 0000 000000
2013-08-31 00:25:53,0.31,0.21,0.00,23.56,28.52,31.16,6.08,29.75,1001.48,2046.70,3417.08,3282.09,3567.10,350.71,318.94,5.37,0000 0000 0000 0000 000000
2013-08-31 00:26:53,0.13,0.21,0.00,23.55,28.52,31.18,5.99,29.46,1001.48,2046.76,3416.47,3281.74,3566.63,351.26,319.66,5.37,0000 0000 0000 0000 000000
2013-08-31 00:27:53,0.27,0.21,0.00,23.56,28.52,31.16,5.95,29.63,1001.48,2046.86,3416.15,3281.32,3566.24,348.66,317.69,5.38,0000 0000 0000 0000 000000
2013-08-31 00:28:53,0.23,0.21,0.00,23.56,28.52,31.09,5.85,29.63,1001.48,2046.86,3415.86,3281.11,3566.09,350.46,318.95,5.39,0000 0000 0000 0000 000000
2013-08-31 00:29:54,0.10,0.21,0.00,23.58,28.52,31.13,5.76,29.46,1001.48,2046.85,3415.36,3281.04,3566.00,350.66,319.12,5.39,0000 0000 0000 0000 000000
2013-08-31 00:30:54,0.05,0.21,0.00,23.59,28.51,31.09,5.79,29.54,1001.48,2046.92,3414.84,3280.71,3565.55,350.12,318.62,5.40,0000 0000 0000 0000 000000
2013-08-31 00:31:54,0.34,0.22,0.00,23.59,28.50,31.07,5.85,29.71,1001.48,2046.97,3414.02,3280.24,3565.09,350.35,318.82,5.40,0000 0000 0000 0000 000000
2013-08-31 00:32:55,0.27,0.22,0.00,23.59,28.50,31.10,5.83,29.63,1001.48,2046.96,3413.27,3279.67,3564.49,350.04,318.55,5.41,0000 0000 0000 0000 000000
2013-08-31 00:33:55,0.28,0.22,0.00,23.59,28.50,31.09,5.96,29.71,1001.48,2046.97,3412.55,3279.25,3564.16,349.27,317.60,5.42,0000 0000 0000 0000 000000
2013-08-31 00:34:55,0.21,0.22,0.00,23.59,28.50,31.08,5.82,29.63,1001.48,2046.97,3412.16,3279.05,3563.81,349.28,318.35,5.42,0000 0000 0000 0000 000000
2013-08-31 00:35:55,0.11,0.22,0.00,23.59,28.50,31.07,5.92,29.75,1001.48,2046.95,3411.58,3278.61,3563.33,350.03,317.88,5.43,0000 0000 0000 0000 000000
2013-08-31 00:36:55,0.26,0.22,0.00,23.60,28.50,31.03,5.84,29.67,1001.49,2046.92,3410.82,3278.19,3562.87,348.89,317.49,5.43,0000 0000 0000 0000 000000
2013-08-31 00:37:56,0.20,0.22,0.00,23.60,28.50,31.05,5.89,29.54,1001.49,2046.94,3410.28,3277.70,3562.36,350.88,319.31,5.44,0000 0000 0000 0000 000000
2013-08-31 00:38:56,0.27,0.23,0.00,23.59,28.50,30.99,5.83,29.71,1001.48,2046.95,3409.68,3277.28,3562.10,349.28,318.30,5.44,0000 0000 0000 0000 000000
2013-08-31 00:39:56,0.19,0.23,0.00,23.60,28.50,30.99,5.84,29.71,1001.50,2046.95,3409.06,3277.01,3561.62,348.40,317.04,5.45,0000 0000 0000 0000 000000
2013-08-31 00:40:56,0.21,0.23,0.00,23.60,28.49,31.01,5.82,29.92,1001.50,2046.95,3408.33,3276.46,3561.12,349.51,317.76,5.46,0000 0000 0000 0000 000000
2013-08-31 00:41:56,0.27,0.23,0.00,23.61,28.48,31.00,5.94,30.04,1001.51,2046.96,3407.57,3276.05,3560.48,350.33,319.00,5.46,0000 0000 0000 0000 000000
2013-08-31 00:42:56,0.27,0.23,0.00,23.62,28.48,30.98,6.00,29.88,1001.55,2046.97,3406.92,3275.49,3560.08,350.63,319.49,5.47,0000 0000 0000 0000 000000
2013-08-31 00:43:57,0.28,0.23,0.00,23.62,28.47,30.97,5.99,29.88,1001.58,2046.98,3406.05,3275.00,3559.48,350.84,319.76,5.47,0000 0000 0000 0000 000000
2013-08-31 00:44:57,0.30,0.23,0.00,23.63,28.47,30.97,6.00,29.71,1001.60,2046.97,3405.18,3274.39,3558.98,349.56,318.10,5.48,0000 0000 0000 0000 000000
2013-08-31 00:45:57,0.29,0.24,0.00,23.63,28.47,31.00,5.87,29.50,1001.57,2046.96,3404.34,3273.86,3558.37,350.35,318.71,5.49,0000 0000 0000 0000 000000
2013-08-31 00:46:57,0.28,0.24,0.00,23.64,28.47,30.99,5.97,29.67,1001.53,2046.97,3403.54,3273.33,3557.78,351.15,319.58,5.49,0000 0000 0000 0000 000000
2013-08-31 00:47:58,0.31,0.24,0.00,23.63,28.47,30.98,5.82,29.63,1001.54,2046.97,3402.87,3272.97,3557.29,347.95,316.74,5.50,0000 0000 0000 0000 000000
2013-08-31 00:48:58,0.21,0.24,0.00,23.63,28.47,30.98,5.99,29.54,1001.58,2046.96,3402.31,3272.43,3557.01,351.22,319.19,5.50,0000 0000 0000 0000 000000
2013-08-31 00:49:58,0.21,0.24,0.00,23.64,28.47,30.96,5.89,29.79,1001.60,2046.96,3401.83,3272.15,3556.52,348.98,317.83,5.51,0000 0000 0000 0000 000000
2013-08-31 00:50:58,0.19,0.24,0.00,23.64,28.47,30.93,5.98,29.54,1001.57,2046.98,3401.16,3271.82,3556.11,350.62,319.33,5.52,0000 0000 0000 0000 000000
2013-08-31 00:51:58,0.22,0.24,0.00,23.65,28.47,30.92,5.95,29.75,1001.53,2046.99,3400.11,3271.16,3555.39,350.72,319.13,5.52,0000 0000 0000 0000 000000
2013-08-31 00:52:59,0.39,0.25,0.00,23.66,28.47,30.93,5.93,29.71,1001.55,2046.99,3398.80,3270.22,3554.44,350.02,318.47,5.53,0000 0000 0000 0000 000000
2013-08-31 00:53:59,0.53,0.25,0.00,23.65,28.47,30.93,5.94,29.71,1001.53,2046.98,3397.39,3269.19,3553.35,349.85,318.32,5.53,0000 0000 0000 0000 000000
2013-08-31 00:54:59,0.54,0.25,0.00,23.65,28.47,30.93,5.85,29.50,1001.50,2046.97,3396.04,3268.26,3552.39,349.16,317.68,5.54,0000 0000 0000 0000 000000
2013-08-31 00:56:00,0.45,0.26,0.00,23.66,28.47,30.91,5.88,29.63,1001.54,2046.98,3394.49,3267.15,3551.25,349.35,317.85,5.54,0000 0000 0000 0000 000000
2013-08-31 00:57:00,0.62,0.26,0.00,23.66,28.47,30.90,5.92,29.67,1001.52,2046.98,3392.75,3265.91,3549.94,350.67,319.05,5.55,0000 0000 0000 0000 000000
2013-08-31 00:58:00,0.66,0.26,0.00,23.67,28.46,30.93,5.90,29.58,1001.48,2046.97,3391.21,3264.76,3548.74,350.45,318.40,5.56,0000 0000 0000 0000 000000
2013-08-31 00:59:00,0.59,0.27,0.00,23.67,28.46,30.94,5.93,29.71,1001.48,2046.98,3389.93,3263.85,3547.75,350.15,318.45,5.56,0000 0000 0000 0000 000000
2013-08-31 01:00:00,0.49,0.27,0.00,23.67,28.45,30.88,6.04,29.75,1001.49,2046.98,3388.90,3263.25,3546.97,351.33,319.63,5.57,0000 0000 0000 0000 000000
2013-08-31 01:01:00,0.34,0.27,0.00,23.68,28.45,30.88,5.75,29.71,1001.50,2046.99,3387.96,3262.58,3546.30,348.86,317.38,5.57,0000 0000 0000 0000 000000
2013-08-31 01:02:01,0.36,0.27,0.00,23.69,28.45,30.87,5.88,29.58,1001.50,2046.98,3386.99,3262.05,3545.59,351.21,319.51,5.58,0000 0000 0000 0000 000000
2013-08-31 01:03:01,0.32,0.28,0.00,23.69,28.45,30.92,6.03,29.83,1001.52,2046.99,3385.91,3261.28,3544.85,350.81,319.15,5.59,0000 0000 0000 0000 000000
2013-08-31 01:04:01,0.41,0.28,0.00,23.69,28.45,30.91,5.95,29.75,1001.50,2046.99,3384.22,3260.07,3543.55,350.20,318.86,5.59,0000 0000 0000 0000 000000
2013-08-31 01:05:01,0.69,0.28,0.00,23.70,28.45,30.89,6.01,29.79,1001.53,2046.97,3382.21,3258.64,3542.06,351.34,319.71,5.60,0000 0000 0000 0000 000000
2013-08-31 01:06:01,0.75,0.29,0.00,23.71,28.45,30.86,5.94,29.83,1001.50,2046.99,3380.40,3257.36,3540.76,351.15,319.44,5.60,0000 0000 0000 0000 000000
2013-08-31 01:07:02,0.67,0.29,0.00,23.71,28.45,30.88,6.00,29.96,1001.50,2046.99,3378.81,3256.25,3539.54,351.18,319.46,5.61,0000 0000 0000 0000 000000
2013-08-31 01:08:02,0.62,0.29,0.00,23.72,28.45,30.86,5.84,29.83,1001.49,2046.98,3377.28,3255.11,3538.35,349.91,318.29,5.61,0000 0000 0000 0000 000000
2013-08-31 01:09:02,0.56,0.30,0.00,23.72,28.45,30.87,5.88,29.71,1001.51,2046.98,3375.28,3253.66,3536.87,350.22,318.57,5.62,0000 0000 0000 0000 000000
2013-08-31 01:10:02,0.80,0.30,0.00,23.73,28.45,30.85,5.88,29.42,1001.55,2046.98,3372.77,3251.89,3534.97,350.10,318.47,5.63,0000 0000 0000 0000 000000
2013-08-31 01:11:03,0.99,0.31,0.00,23.74,28.45,30.83,5.79,29.67,1001.54,2046.98,3369.70,3249.67,3532.66,348.83,317.54,5.63,0000 0000 0000 0000 000000
2013-08-31 01:12:03,1.22,0.32,0.00,23.74,28.45,30.81,5.95,29.67,1001.54,2046.98,3366.86,3247.66,3530.54,350.72,319.06,5.64,0000 0000 0000 0000 000000
2013-08-31 01:13:03,1.06,0.32,0.00,23.76,28.45,30.81,6.06,29.75,1001.57,2046.99,3364.35,3245.87,3528.66,349.76,318.53,5.64,0000 0000 0000 0000 000000
2013-08-31 01:14:03,0.97,0.33,0.00,23.77,28.45,30.81,5.83,29.88,1001.55,2046.97,3362.04,3244.22,3526.90,349.97,318.31,5.65,0000 0000 0000 0000 000000
2013-08-31 01:15:04,0.83,0.33,0.00,23.77,28.45,30.82,6.00,29.67,1001.54,2046.97,3359.85,3242.66,3525.24,350.49,318.77,5.66,0000 0000 0000 0000 000000
2013-08-31 01:16:04,0.85,0.34,0.00,23.77,28.45,30.83,5.97,29.79,1001.57,2046.98,3357.83,3241.20,3523.71,350.82,319.10,5.66,0000 0000 0000 0000 000000
2013-08-31 01:17:04,0.78,0.34,0.00,23.77,28.45,30.84,5.88,29.67,1001.58,2046.98,3355.95,3239.88,3522.37,349.95,318.30,5.67,0000 0000 0000 0000 000000
2013-08-31 01:18:04,0.69,0.35,0.00,23.77,28.45,30.85,5.93,29.96,1001.57,2046.99,3354.09,3238.59,3521.06,349.67,318.04,5.67,0000 0000 0000 0000 000000
2013-08-31 01:19:05,0.71,0.35,0.00,23.77,28.45,30.83,6.00,29.54,1001.72,2046.98,3352.13,3237.18,3519.62,350.25,318.62,5.68,0000 0000 0000 0000 000000
2013-08-31 01:20:05,0.75,0.35,0.00,23.77,28.45,30.80,5.69,29.71,1001.70,2046.98,3350.33,3235.89,3518.31,348.78,317.10,5.68,0000 0000 0000 0000 000000
2013-08-31 01:21:05,0.66,0.36,0.00,23.78,28.45,30.78,5.83,29.58,1001.68,2046.96,3348.88,3234.82,3517.24,349.31,317.38,5.69,0000 0000 0000 0000 000000
2013-08-31 01:22:05,0.52,0.36,0.00,23.78,28.45,30.81,5.93,29.75,1001.55,2046.97,3347.42,3233.82,3516.16,349.84,318.18,5.70,0000 0000 0000 0000 000000
2013-08-31 01:23:06,0.60,0.36,0.00,23.79,28.45,30.81,5.96,29.63,1001.60,2046.98,3345.45,3232.38,3514.69,350.18,318.49,5.70,0000 0000 0000 0000 000000
2013-08-31 01:24:06,0.81,0.37,0.00,23.81,28.45,30.82,6.03,29.79,1001.63,2046.99,3343.18,3230.71,3513.01,350.29,318.80,5.71,0000 0000 0000 0000 000000
2013-08-31 01:25:06,0.90,0.37,0.00,23.80,28.45,30.82,5.91,29.67,1001.67,2046.97,3340.85,3229.01,3511.24,349.58,317.96,5.71,0000 0000 0000 0000 000000
2013-08-31 01:26:06,0.90,0.38,0.00,23.80,28.45,30.80,5.87,29.63,1001.65,2046.96,3338.34,3227.20,3509.34,349.76,318.15,5.72,0000 0000 0000 0000 000000
2013-08-31 01:27:07,0.96,0.39,0.00,23.81,28.45,30.78,5.98,29.46,1001.76,2046.97,3335.87,3225.40,3507.48,351.06,319.36,5.73,0000 0000 0000 0000 000000
2013-08-31 01:28:07,0.96,0.39,0.00,23.82,28.45,30.80,5.91,29.50,1001.74,2046.94,3334.09,3224.12,3506.11,350.62,318.78,5.73,0000 0000 0000 0000 000000
2013-08-31 01:29:07,0.63,0.40,0.00,23.83,28.45,30.78,5.84,29.63,1001.88,2046.97,3332.68,3223.09,3505.07,350.50,318.89,5.74,0000 0000 0000 0000 000000
2013-08-31 01:30:07,0.58,0.40,0.50,23.84,28.45,30.77,5.90,29.63,1001.88,2046.96,3331.15,3222.00,3503.90,349.88,318.67,5.74,0000 0000 0000 0000 000000
2013-08-31 01:31:08,0.59,0.40,1.00,23.85,28.45,30.77,5.87,29.67,1001.86,2046.94,3329.59,3220.89,3502.68,349.22,317.85,5.75,0000 0000 0000 0000 000000
2013-08-31 01:32:08,0.62,0.41,1.00,23.87,28.45,30.78,5.83,29.79,1001.84,2046.94,3327.53,3219.36,3501.04,348.88,317.70,5.75,0000 0000 0000 0000 000000
2013-08-31 01:33:08,0.84,0.41,1.00,23.88,28.45,30.78,5.89,29.71,1001.93,2046.94,3325.34,3217.73,3499.36,350.05,318.44,5.76,0000 0000 0000 0000 000000
2013-08-31 01:34:08,0.86,0.42,1.00,23.88,28.45,30.77,5.83,29.63,1001.94,2046.95,3323.56,3216.44,3497.99,350.03,318.38,5.77,0000 0000 0000 0000 000000
2013-08-31 01:35:08,0.66,0.42,1.00,23.89,28.45,30.75,6.03,29.71,1001.93,2046.94,3322.29,3215.50,3497.09,351.34,319.55,5.77,0000 0000 0000 0000 000000
2013-08-31 01:36:09,0.49,0.42,1.00,23.88,28.45,30.73,5.96,29.42,1001.95,2046.95,3320.90,3214.59,3496.12,351.04,319.29,5.78,0000 0000 0000 0000 000000
2013-08-31 01:37:09,0.52,0.43,1.00,23.92,28.46,30.71,5.90,29.58,1001.97,2046.95,3319.05,3213.35,3494.75,349.81,318.14,5.78,0000 0000 0000 0000 000000
2013-08-31 01:38:09,0.73,0.43,1.00,23.89,28.46,30.70,5.92,29.67,1001.96,2046.95,3316.88,3211.86,3493.17,349.94,318.28,5.79,0000 0000 0000 0000 000000
2013-08-31 01:39:10,0.81,0.43,1.00,24.06,28.46,30.81,5.97,29.58,1001.95,2046.96,3314.91,3210.43,3491.68,351.01,319.09,5.80,0000 0000 0000 0000 000000
2013-08-31 01:40:10,0.78,0.44,1.00,24.48,28.47,30.84,5.90,29.71,1001.96,2046.93,3313.22,3209.14,3490.41,349.90,317.63,5.80,0000 0000 0000 0000 000000
2013-08-31 01:41:10,0.65,0.44,1.00,24.72,28.47,30.77,5.89,29.71,1001.96,2046.84,3312.32,3208.41,3489.53,350.69,317.76,5.81,0000 0000 0000 0000 000000
2013-08-31 01:42:10,0.28,0.45,1.00,24.85,28.47,30.83,5.83,29.79,1001.97,2046.82,3311.55,3207.98,3489.13,349.94,317.26,5.81,0000 0000 0000 0000 000000
2013-08-31 01:43:11,0.24,0.45,1.00,24.96,28.47,30.92,5.90,30.17,1001.97,2046.89,3311.03,3207.43,3488.68,350.30,317.47,5.82,0000 0000 0000 0000 000000
2013-08-31 01:44:11,0.28,0.45,1.00,25.04,28.47,30.98,5.88,29.63,1001.97,2046.92,3310.52,3207.17,3488.28,350.31,316.47,5.83,0000 0000 0000 0000 000000
2013-08-31 01:45:11,0.21,0.45,1.00,25.09,28.47,30.99,5.85,29.46,1001.97,2046.94,3310.42,3207.06,3488.12,350.05,317.11,5.83,0000 0000 0000 0000 000000
2013-08-31 01:46:12,0.05,0.45,1.00,25.13,28.47,31.00,5.80,30.08,1001.97,2046.95,3310.25,3207.03,3488.06,349.23,316.33,5.84,0000 0000 0000 0000 000000
2013-08-31 01:47:12,0.04,0.45,1.00,25.12,28.47,31.01,5.89,29.67,1001.97,2046.94,3310.09,3206.99,3488.01,350.40,317.34,5.84,0000 0000 0000 0000 000000
2013-08-31 01:48:12,0.05,0.45,1.00,25.14,28.47,31.01,5.88,29.79,1001.97,2046.94,3309.58,3206.56,3487.67,349.40,316.47,5.85,0000 0000 0000 0000 000000
2013-08-31 01:49:12,0.18,0.45,1.00,25.16,28.47,31.02,5.83,29.33,1001.97,2046.94,3309.20,3206.21,3487.25,351.94,318.75,5.85,0000 0000 0000 0000 000000
2013-08-31 01:50:13,0.20,0.45,1.00,25.17,28.47,31.03,5.83,29.75,1001.97,2046.93,3308.64,3205.88,3486.86,350.14,317.12,5.86,0000 0000 0000 0000 000000
2013-08-31 01:51:13,0.16,0.45,1.00,25.17,28.47,31.03,5.81,29.63,1001.97,2046.94,3308.03,3205.35,3486.33,349.38,316.41,5.87,0000 0000 0000 0000 000000
2013-08-31 01:52:13,0.29,0.46,1.00,25.12,28.47,31.04,5.73,29.50,1001.97,2046.93,3307.41,3205.12,3486.11,349.78,316.82,5.87,0000 0000 0000 0000 000000
2013-08-31 01:53:14,0.15,0.46,1.00,25.07,28.47,31.05,5.67,29.46,1001.97,2046.90,3307.14,3204.99,3485.92,349.89,316.98,5.88,0000 0000 0000 0000 000000
2013-08-31 01:54:14,0.11,0.46,1.00,25.00,28.47,31.04,5.97,29.50,1001.97,2046.92,3306.69,3204.50,3485.41,351.50,318.51,5.88,0000 0000 0000 0000 000000
2013-08-31 01:55:14,0.22,0.46,1.00,24.96,28.47,31.03,5.88,29.71,1001.97,2046.93,3306.30,3204.18,3485.15,350.19,316.87,5.89,0000 0000 0000 0000 000000
2013-08-31 01:56:14,0.13,0.46,1.00,24.95,28.47,31.03,5.96,29.54,1001.97,2046.94,3306.12,3204.06,3485.05,350.75,317.90,5.90,0000 0000 0000 0000 000000
2013-08-31 01:57:15,0.06,0.46,1.00,24.96,28.47,31.01,5.88,29.63,1001.97,2046.93,3306.02,3204.01,3484.97,349.82,317.23,5.90,0000 0000 0000 0000 000000
2013-08-31 01:58:15,0.06,0.46,1.00,24.95,28.47,30.96,5.88,29.58,1001.97,2046.95,3305.61,3203.88,3484.64,350.49,317.87,5.91,0000 0000 0000 0000 000000
2013-08-31 01:59:16,0.15,0.46,1.00,24.92,28.47,30.94,5.77,29.88,1001.97,2046.96,3305.03,3203.37,3484.13,348.47,315.85,5.91,0000 0000 0000 0000 000000
2013-08-31 02:00:16,0.30,0.46,0.33,24.89,28.47,30.95,5.98,29.50,1001.97,2046.96,3303.94,3202.54,3483.29,351.19,318.34,5.92,0000 0000 0000 0000 000000
2013-08-31 02:01:16,0.46,0.46,0.00,24.86,28.47,30.94,5.77,29.67,1001.97,2046.92,3302.50,3201.52,3482.16,350.31,317.58,5.92,0000 0000 0000 0000 000000
2013-08-31 02:02:16,0.53,0.47,0.00,24.93,28.47,30.92,5.91,29.54,1001.97,2046.93,3301.48,3200.61,3481.42,349.65,317.07,5.93,0000 0000 0000 0000 000000
2013-08-31 02:03:16,0.43,0.47,0.00,24.96,28.47,30.91,5.87,29.83,1001.97,2046.96,3300.60,3200.07,3480.77,349.83,316.67,5.94,0000 0000 0000 0000 000000
2013-08-31 02:04:17,0.33,0.47,0.00,24.96,28.47,30.92,5.97,29.63,1001.97,2046.94,3299.57,3199.41,3479.99,350.94,318.06,5.94,0000 0000 0000 0000 000000
2013-08-31 02:05:17,0.38,0.47,0.00,24.91,28.47,30.92,5.95,29.83,1001.97,2046.93,3298.48,3198.72,3479.19,350.35,317.21,5.95,0000 0000 0000 0000 000000
2013-08-31 02:06:17,0.37,0.48,0.00,24.88,28.47,30.89,5.88,30.04,1001.97,2046.92,3297.57,3198.10,3478.45,349.40,317.03,5.95,0000 0000 0000 0000 000000
2013-08-31 02:07:18,0.34,0.48,0.00,24.89,28.47,30.89,5.93,29.92,1001.97,2046.93,3297.08,3197.50,3478.15,350.38,317.64,5.96,0000 0000 0000 0000 000000
2013-08-31 02:08:18,0.23,0.48,0.00,24.91,28.47,30.89,5.75,29.71,1001.97,2046.92,3296.50,3197.18,3477.84,349.67,316.97,5.97,0000 0000 0000 0000 000000
2013-08-31 02:09:18,0.17,0.48,0.00,24.90,28.47,30.85,5.95,29.83,1001.97,2046.92,3295.84,3196.80,3477.31,349.28,316.61,5.97,0000 0000 0000 0000 000000
2013-08-31 02:10:19,0.26,0.48,0.00,24.93,28.47,30.79,5.77,29.79,1001.97,2046.92,3295.03,3196.27,3476.67,350.13,317.35,5.98,0000 0000 0000 0000 000000
2013-08-31 02:11:19,0.33,0.48,0.00,24.93,28.47,30.76,5.95,29.79,1001.97,2046.93,3293.94,3195.50,3475.86,350.13,317.35,5.98,0000 0000 0000 0000 000000
2013-08-31 02:12:19,0.44,0.49,0.00,24.91,28.47,30.78,5.76,30.00,1001.97,2046.91,3292.40,3194.37,3474.61,348.91,316.26,5.99,0000 0000 0000 0000 000000
2013-08-31 02:13:20,0.59,0.49,0.00,24.88,28.47,30.81,5.77,29.88,1001.97,2046.89,3290.92,3193.29,3473.51,349.69,317.01,6.00,0000 0000 0000 0000 000000
2013-08-31 02:14:20,0.59,0.49,0.00,24.85,28.47,30.80,5.93,29.92,1001.97,2046.92,3289.56,3192.30,3472.47,350.14,317.44,6.00,0000 0000 0000 0000 000000
2013-08-31 02:15:20,0.58,0.50,0.00,24.84,28.47,30.79,5.86,30.13,1001.98,2046.87,3287.63,3190.85,3471.00,349.36,316.99,6.01,0000 0000 0000 0000 000000
2013-08-31 02:16:20,0.77,0.50,0.00,24.86,28.47,30.80,5.86,29.75,1001.98,2046.86,3285.34,3189.18,3469.23,350.03,317.33,6.01,0000 0000 0000 0000 000000
2013-08-31 02:17:21,0.88,0.51,0.00,24.88,28.47,30.79,5.73,29.92,1001.97,2046.87,3283.10,3187.62,3467.54,348.37,315.81,6.02,0000 0000 0000 0000 000000
2013-08-31 02:18:21,0.89,0.51,0.00,24.89,28.47,30.79,5.78,29.63,1001.97,2046.85,3281.09,3186.18,3466.01,349.62,317.08,6.02,0000 0000 0000 0000 000000
2013-08-31 02:19:21,0.79,0.52,0.00,24.90,28.47,30.83,5.86,29.54,1001.98,2046.87,3279.20,3184.81,3464.60,350.59,317.57,6.03,0000 0000 0000 0000 000000
2013-08-31 02:20:22,0.75,0.52,0.00,24.89,28.47,30.85,5.78,29.67,1001.98,2046.91,3277.50,3183.52,3463.31,349.62,317.10,6.04,0000 0000 0000 0000 000000
2013-08-31 02:21:22,0.69,0.53,0.00,24.88,28.47,30.84,5.98,29.63,1001.97,2046.82,3275.90,3182.35,3462.02,351.00,318.20,6.04,0000 0000 0000 0000 000000
2013-08-31 02:22:22,0.57,0.53,0.00,24.87,28.47,30.84,5.80,29.71,1001.98,2046.77,3274.66,3181.46,3461.14,350.24,317.10,6.05,0000 0000 0000 0000 000000
2013-08-31 02:23:22,0.47,0.53,0.00,24.88,28.47,30.84,5.83,29.46,1001.99,2046.85,3273.47,3180.62,3460.26,351.56,318.71,6.05,0000 0000 0000 0000 000000
2013-08-31 02:24:22,0.51,0.53,0.00,24.92,28.47,30.80,5.87,29.58,1001.98,2046.86,3272.03,3179.66,3459.13,350.95,317.97,6.06,0000 0000 0000 0000 000000
2013-08-31 02:25:23,0.56,0.54,0.00,24.92,28.47,30.78,5.92,29.46,1002.03,2046.83,3270.74,3178.73,3458.18,349.79,316.79,6.07,0000 0000 0000 0000 000000
2013-08-31 02:26:23,0.48,0.54,0.00,24.91,28.47,30.78,5.92,29.38,1002.04,2046.81,3269.70,3178.16,3457.44,350.98,318.15,6.07,0000 0000 0000 0000 000000
2013-08-31 02:27:23,0.35,0.54,0.00,24.90,28.47,30.78,5.93,29.83,1002.03,2046.78,3269.25,3177.54,3457.15,349.59,316.91,6.08,0000 0000 0000 0000 000000
2013-08-31 02:28:24,0.17,0.54,0.00,24.89,28.47,30.78,5.92,29.50,1002.02,2046.60,3269.07,3177.22,3457.03,349.79,317.10,6.08,0000 0000 0000 0000 000000
2013-08-31 02:29:24,-0.03,0.54,0.00,24.92,28.47,30.77,5.81,29.83,1002.02,2046.38,3268.92,3177.09,3456.76,349.10,316.21,6.09,0000 0000 0000 0000 000000
2013-08-31 02:30:24,-0.06,0.54,0.00,24.91,28.47,30.78,6.00,30.04,1002.00,2046.29,3268.55,3177.03,3456.52,351.14,318.29,6.09,0000 0000 0000 0000 000000
2013-08-31 02:31:25,0.04,0.54,0.00,24.89,28.47,30.81,5.83,30.04,1002.03,2046.37,3268.23,3177.01,3456.36,350.03,317.32,6.10,0000 0000 0000 0000 000000
2013-08-31 02:32:25,0.11,0.54,0.00,24.89,28.47,30.82,5.64,29.88,1002.02,2046.39,3268.08,3177.00,3456.17,348.58,316.00,6.11,0000 0000 0000 0000 000000
2013-08-31 02:33:25,0.05,0.55,0.00,24.92,28.47,30.82,5.77,30.08,1002.06,2046.36,3268.04,3176.99,3456.08,350.14,317.40,6.11,0000 0000 0000 0000 000000
2013-08-31 02:34:26,-0.01,0.55,0.00,24.94,28.47,30.83,5.85,30.13,1002.07,2046.29,3268.01,3176.98,3456.03,350.19,317.74,6.12,0000 0000 0000 0000 000000
2013-08-31 02:35:26,-0.02,0.55,0.00,24.96,28.47,30.85,5.82,30.04,1002.04,2046.27,3267.99,3176.99,3456.01,350.52,317.69,6.12,0000 0000 0000 0000 000000
2013-08-31 02:36:26,0.01,0.55,0.00,24.96,28.47,30.87,5.89,29.92,1002.11,2046.35,3267.99,3176.96,3456.00,350.43,317.88,6.13,0000 0000 0000 0000 000000
2013-08-31 02:37:26,0.07,0.55,0.00,24.96,28.47,30.86,5.83,29.79,1002.08,2046.44,3267.97,3176.89,3456.00,349.69,317.40,6.14,0000 0000 0000 0000 000000